Pasco, WA

12:06 AM PDT on March 24, 2017 (GMT -0700)
Tri-Cities

Weather History for KPSC - December, 2013

Change the Weather History Date:

Monday, December 23, 2013

  Actual Average Record
Temperature  
Mean Temperature 44 °F 32 °F  
Max Temperature 59 °F 39 °F 59 °F (2013)
Min Temperature 28 °F 25 °F 0 °F (1990)
Degree Days  
Heating Degree Days 21 33  
Month to date heating degree days 864 726  
Since 1 July heating degree days 2214 1955  
Cooling Degree Days 0 0  
Month to date cooling degree days 0 0  
Year to date cooling degree days 995 710  
Moisture  
Dew Point 34 °F    
Average Humidity 73    
Maximum Humidity 100    
Minimum Humidity 46    
Precipitation  
Precipitation 0.02 in 0.05 in 0.32 in (2012)
Month to date precipitation 0.14 0.83  
Year to date precipitation 4.89 8.45  
Snow  
Snow 0.00 in - - ()
Snow Depth 0.00 in    
Sea Level Pressure  
Sea Level Pressure 30.24 in    
Wind  
Wind Speed 6 mph (West)    
Max Wind Speed 36 mph    
Max Gust Speed 44 mph    
Visibility 9 miles    
Events      
T = Trace of Precipitation, MM = Missing Value Source: NWS Daily Summary

Daily Weather History Graph

Daily Weather History Graph

Search for Another Location

Airport or City:

Trip Planner

Search our weather history database for the weather conditions in past years. The results will help you decide how hot, cold, wet, or windy it might be!

Date:

Astronomy

Dec. 23, 2013 Rise Set
Actual Time 7:37 AM PST 4:14 PM PST
Civil Twilight 7:02 AM PST 4:49 PM PST
Nautical Twilight 6:24 AM PST 5:27 PM PST
Astronomical Twilight 5:47 AM PST 6:03 PM PST
Moon 10:49 PM PST (12/23) 10:46 AM PST (12/23)
Length of Visible Light 9h 46m
Length of Day
8h 36m
Waning Gibbous, 67% of the Moon is Illuminated
Dec 23
Waning Gibbous
Dec 25
Last Quarter
Jan 1
New
Jan 7
First Quarter
Jan 15
Full

Hourly Weather History & Observations

Time (PST) Temp. Windchill Dew Point Humidity Pressure Visibility Wind Dir Wind Speed Gust Speed Precip Events Conditions
12:53 AM 30.9 °F - 30.0 °F 96% 30.30 in 8.0 mi Calm Calm - 0.00 in   Mostly Cloudy
1:53 AM 30.9 °F 27.5 °F 30.0 °F 96% 30.29 in 7.0 mi North 3.5 mph - N/A   Overcast
2:53 AM 32.0 °F - 32.0 °F 100% 30.28 in 8.0 mi Calm Calm - N/A   Mostly Cloudy
3:53 AM 30.9 °F 27.5 °F 28.9 °F 92% 30.28 in 7.0 mi WNW 3.5 mph - N/A   Partly Cloudy
4:53 AM 32.0 °F - 30.0 °F 92% 30.26 in 8.0 mi Calm Calm - N/A   Scattered Clouds
5:53 AM 32.0 °F - 30.9 °F 96% 30.25 in 8.0 mi Calm Calm - 0.00 in   Overcast
6:53 AM 32.0 °F 26.4 °F 30.9 °F 96% 30.25 in 7.0 mi NNW 5.8 mph - 0.02 in   Overcast
7:53 AM 32.0 °F - 32.0 °F 100% 30.22 in 6.0 mi Calm Calm - N/A   Overcast
8:53 AM 33.1 °F 27.7 °F 32.0 °F 96% 30.21 in 5.0 mi NNW 5.8 mph - N/A   Mostly Cloudy
9:53 AM 37.9 °F - 37.0 °F 97% 30.20 in 10.0 mi Calm Calm - N/A   Scattered Clouds
10:53 AM 52.0 °F - 43.0 °F 71% 30.16 in 10.0 mi SW 10.4 mph - N/A   Scattered Clouds
11:53 AM 55.9 °F - 44.1 °F 64% 30.12 in 10.0 mi SW 19.6 mph 29.9 mph N/A   Partly Cloudy
12:53 PM 59.0 °F - 44.1 °F 58% 30.09 in 10.0 mi WSW 33.4 mph 43.7 mph N/A   Clear
1:53 PM 57.9 °F - 44.1 °F 60% 30.08 in 10.0 mi SW 27.6 mph 39.1 mph N/A   Scattered Clouds
2:53 PM 57.9 °F - 43.0 °F 58% 30.09 in 10.0 mi SW 23.0 mph 33.4 mph N/A   Scattered Clouds
3:53 PM 55.0 °F - 42.1 °F 62% 30.11 in 10.0 mi SW 20.7 mph 31.1 mph N/A   Partly Cloudy
4:21 PM 52.0 °F - 39.9 °F 63% 30.14 in 10.0 mi WNW 9.2 mph - N/A   Mostly Cloudy
4:53 PM 53.1 °F - 34.0 °F 48% 30.16 in 10.0 mi West 23.0 mph 28.8 mph N/A   Partly Cloudy
5:53 PM 46.9 °F - 28.0 °F 48% 30.24 in 10.0 mi NW 16.1 mph - N/A   Clear
6:53 PM 37.0 °F 34.5 °F 30.0 °F 76% 30.28 in 10.0 mi West 3.5 mph - N/A   Clear
7:53 PM 37.0 °F 34.5 °F 30.0 °F 76% 30.33 in 10.0 mi South 3.5 mph - N/A   Clear
8:53 PM 36.0 °F 32.1 °F 30.9 °F 82% 30.37 in 10.0 mi Variable 4.6 mph - N/A   Clear
9:53 PM 34.0 °F 28.8 °F 30.0 °F 85% 30.39 in 10.0 mi SW 5.8 mph - N/A   Clear
10:53 PM 35.1 °F - 30.0 °F 82% 30.42 in 10.0 mi Calm Calm - N/A   Clear
11:53 PM 34.0 °F 28.8 °F 28.9 °F 82% 30.46 in 10.0 mi ENE 5.8 mph - N/A   Clear